Date String (YYYY-MM-DD hh:mm:ss) UTC,Instrument flags,Ambient pressure (hPa),Sample flow (lpm),Bypass flow (lpm),Sample temperature (°C),Ambient temperature (°C),ASC tube jacket temperature (°C),LED temperature (°C),Box temperature (°C),Sample RH (%),Span deviation,Mass concentration (μg/m³),Mass concentration (μg/m³),Mass concentration (μg/m³)
DateTimeUTC,F1_M11,P_M11,Q1_M11,Q2_M11,T1_M11,T2_M11,T3_M11,T4_M11,T5_M11,U1_M11,ZSPAN_M11,X0_M11,X2_M11,X1_M11
2022-12-18 22:00:00,,0819.0,5.02,0.00,23.4,22.2,00.0,32.1,25.1,05.6,0000.0,0006.33,0003.20,0002.39
2022-12-18 22:01:00,,0819.0,4.97,0.00,23.4,22.2,00.0,32.1,25.1,05.7,0000.0,0006.45,0003.20,0002.37
2022-12-18 22:02:00,,0819.0,5.02,0.00,23.4,22.2,00.0,32.1,25.1,05.7,0000.0,0007.07,0003.21,0002.36
2022-12-18 22:03:00,,0819.0,4.95,0.00,23.4,22.2,00.0,32.1,25.2,05.6,0000.0,0007.42,0003.20,0002.34
2022-12-18 22:04:00,,0819.0,5.02,0.00,23.4,22.2,00.0,32.2,25.2,05.9,0000.0,0007.58,0003.23,0002.35
2022-12-18 22:05:00,,0819.0,5.01,0.00,23.4,22.3,00.0,32.2,25.2,06.3,0000.0,0007.54,0003.26,0002.45
2022-12-18 22:06:00,,0819.0,4.97,0.00,23.5,22.3,00.0,32.2,25.3,06.4,0000.0,0007.70,0003.36,0002.56
2022-12-18 22:07:00,,0819.0,5.03,0.00,23.5,22.3,00.0,32.2,25.3,06.3,0000.0,0007.97,0003.48,0002.69
2022-12-18 22:08:00,,0819.1,4.96,0.00,23.5,22.3,00.0,32.2,25.4,06.3,0000.0,0008.33,0003.53,0002.79
2022-12-18 22:09:00,,0819.1,5.03,0.00,23.5,22.2,00.0,32.2,25.4,06.3,0000.0,0008.90,0003.57,0002.91
2022-12-18 22:10:00,,0819.0,4.97,0.00,23.5,22.3,00.0,32.2,25.4,06.3,0000.0,0009.64,0003.68,0003.06
2022-12-18 22:11:00,,0819.0,5.03,0.00,23.5,22.2,00.0,32.2,25.4,06.4,0000.0,0009.89,0003.79,0003.18
2022-12-18 22:12:00,,0819.0,4.98,0.00,23.5,22.1,00.0,32.3,25.3,06.3,0000.0,0010.12,0003.90,0003.27
2022-12-18 22:13:00,,0819.0,5.03,0.00,23.5,22.0,00.0,32.3,25.3,06.3,0000.0,0010.04,0003.97,0003.35
2022-12-18 22:14:00,,0819.0,4.99,0.00,23.4,22.0,00.0,32.3,25.3,06.3,0000.0,0010.23,0004.07,0003.42
2022-12-18 22:15:00,,0819.1,5.00,0.00,23.4,22.0,00.0,32.2,25.2,06.4,0000.0,0010.45,0004.17,0003.51
2022-12-18 22:16:00,,0819.1,5.02,0.00,23.4,22.0,00.0,32.2,25.3,06.4,0000.0,0010.98,0004.24,0003.55
2022-12-18 22:17:00,,0819.1,4.96,0.00,23.4,21.9,00.0,32.3,25.2,06.4,0000.0,0011.04,0004.25,0003.57
2022-12-18 22:18:00,,0819.1,5.03,0.00,23.4,21.9,00.0,32.3,25.2,06.4,0000.0,0011.02,0004.25,0003.59
2022-12-18 22:19:00,,0819.1,4.96,0.00,23.4,21.9,00.0,32.2,25.2,06.3,0000.0,0010.79,0004.27,0003.61
2022-12-18 22:20:00,,0819.1,5.03,0.00,23.4,21.9,00.0,32.2,25.2,06.3,0000.0,0010.05,0004.31,0003.64
2022-12-18 22:21:00,,0819.1,4.98,0.00,23.4,21.9,00.0,32.2,25.2,06.3,0000.0,0009.60,0004.31,0003.64
2022-12-18 22:22:00,,0819.1,5.01,0.00,23.4,21.9,00.0,32.2,25.2,06.3,0000.0,0009.61,0004.31,0003.64
2022-12-18 22:23:00,,0819.1,5.01,0.00,23.4,22.0,00.0,32.2,25.2,06.2,0000.0,0009.80,0004.33,0003.63
2022-12-18 22:24:00,,0819.0,4.98,0.00,23.4,22.0,00.0,32.2,25.2,06.2,0000.0,0009.96,0004.35,0003.62
2022-12-18 22:25:00,,0819.1,5.03,0.00,23.4,22.1,00.0,32.2,25.2,06.2,0000.0,0009.77,0004.33,0003.61
2022-12-18 22:26:00,,0819.1,4.98,0.00,23.4,22.1,00.0,32.2,25.2,06.2,0000.0,0009.54,0004.29,0003.59
2022-12-18 22:27:00,,0819.0,5.03,0.00,23.4,22.1,00.0,32.2,25.2,06.2,0000.0,0009.08,0004.23,0003.57
2022-12-18 22:28:00,,0819.0,4.96,0.00,23.4,22.2,00.0,32.2,25.2,06.2,0000.0,0009.96,0004.19,0003.55
2022-12-18 22:29:00,,0819.0,5.04,0.00,23.4,22.2,00.0,32.2,25.3,06.2,0000.0,0010.85,0004.17,0003.54
2022-12-18 22:30:00,,0819.0,4.96,0.00,23.4,22.1,00.0,32.2,25.3,06.2,0000.0,0011.55,0004.16,0003.51
2022-12-18 22:31:00,,0819.0,5.03,0.00,23.4,22.1,00.0,32.2,25.3,06.2,0000.0,0011.57,0004.14,0003.50
2022-12-18 22:32:00,,0819.0,4.96,0.00,23.4,22.1,00.0,32.2,25.3,06.2,0000.0,0011.54,0004.10,0003.49
2022-12-18 22:33:00,,0819.0,5.04,0.00,23.4,22.1,00.0,32.2,25.2,06.2,0000.0,0011.63,0004.07,0003.46
2022-12-18 22:34:00,,0819.0,5.00,0.00,23.4,22.1,00.0,32.2,25.2,06.2,0000.0,0011.36,0004.02,0003.45
2022-12-18 22:35:00,,0819.0,4.99,0.00,23.4,22.2,00.0,32.2,25.2,06.2,0000.0,0011.07,0003.99,0003.45
2022-12-18 22:36:00,,0819.1,5.04,0.00,23.4,22.2,00.0,32.2,25.2,06.2,0000.0,0011.09,0003.98,0003.44
2022-12-18 22:37:00,,0819.1,4.96,0.00,23.5,22.2,00.0,32.2,25.2,06.1,0000.0,0011.52,0003.98,0003.43
2022-12-18 22:38:00,,0819.1,5.03,0.00,23.5,22.3,00.0,32.2,25.2,06.1,0000.0,0011.54,0003.98,0003.42
2022-12-18 22:39:00,,0819.1,4.95,0.00,23.5,22.3,00.0,32.2,25.3,06.2,0000.0,0011.18,0003.95,0003.42
2022-12-18 22:40:00,,0819.1,5.03,0.00,23.5,22.3,00.0,32.3,25.4,06.2,0000.0,0010.95,0003.98,0003.40
2022-12-18 22:41:00,,0819.1,4.99,0.00,23.5,22.3,00.0,32.3,25.3,06.2,0000.0,0010.07,0003.98,0003.40
2022-12-18 22:42:00,,0819.2,5.00,0.00,23.5,22.3,00.0,32.3,25.3,06.2,0000.0,0010.67,0003.96,0003.39
2022-12-18 22:43:00,,0819.2,5.04,0.00,23.5,22.3,00.0,32.3,25.4,06.1,0000.0,0010.74,0003.97,0003.39
2022-12-18 22:44:00,,0819.1,4.96,0.00,23.5,22.3,00.0,32.3,25.4,06.1,0000.0,0010.66,0003.97,0003.40
2022-12-18 22:45:00,,0819.2,5.04,0.00,23.5,22.3,00.0,32.3,25.4,06.2,0000.0,0010.99,0004.00,0003.41
2022-12-18 22:46:00,,0819.1,4.96,0.00,23.5,22.3,00.0,32.3,25.4,06.2,0000.0,0011.01,0004.00,0003.43
2022-12-18 22:47:00,,0819.2,5.02,0.00,23.6,22.3,00.0,32.3,25.4,06.2,0000.0,0011.15,0004.02,0003.45
2022-12-18 22:48:00,,0819.2,4.96,0.00,23.6,22.3,00.0,32.3,25.5,06.3,0000.0,0010.94,0004.06,0003.47
2022-12-18 22:49:00,,0819.2,5.03,0.00,23.6,22.3,00.0,32.3,25.5,06.3,0000.0,0011.17,0004.12,0003.50
2022-12-18 22:50:00,,0819.1,5.02,0.00,23.6,22.2,00.0,32.4,25.4,06.3,0000.0,0011.39,0004.20,0003.56
2022-12-18 22:51:00,,0819.1,4.96,0.00,23.5,22.1,00.0,32.4,25.4,06.3,0000.0,0011.60,0004.29,0003.64
2022-12-18 22:52:00,,0819.1,5.05,0.00,23.5,22.1,00.0,32.4,25.4,06.4,0000.0,0011.94,0004.36,0003.69
2022-12-18 22:53:00,,0819.1,4.97,0.00,23.5,22.0,00.0,32.4,25.3,06.4,0000.0,0012.06,0004.47,0003.75
2022-12-18 22:54:00,,0819.1,5.02,0.00,23.5,22.0,00.0,32.4,25.3,06.4,0000.0,0012.46,0004.55,0003.79
2022-12-18 22:55:00,,0819.1,5.03,0.00,23.5,22.0,00.0,32.3,25.3,06.4,0000.0,0012.65,0004.60,0003.83
2022-12-18 22:56:00,,0819.1,4.95,0.00,23.5,22.0,00.0,32.3,25.3,06.4,0000.0,0012.40,0004.66,0003.88
2022-12-18 22:57:00,,0819.1,5.02,0.00,23.5,22.0,00.0,32.3,25.3,06.4,0000.0,0012.57,0004.71,0003.91
2022-12-18 22:58:00,,0819.1,4.98,0.00,23.5,22.0,00.0,32.3,25.3,06.4,0000.0,0013.07,0004.73,0003.94
2022-12-18 22:59:00,,0819.1,5.00,0.00,23.5,22.1,00.0,32.3,25.3,06.4,0000.0,0013.45,0004.78,0003.98
